TimeAST,TemperatureF,Dew PointF,Humidity,Sea Level PressureIn,VisibilityMPH,Wind Direction,Wind SpeedMPH,Gust SpeedMPH,PrecipitationIn,Events,Conditions,WindDirDegrees,DateUTC
2:00 AM,75.2,75.2,100,29.80,6.2,Calm,Calm,-,N/A,,Partly Cloudy,0,2012-10-28 06:00:00
8:00 AM,73,69,82,29.77,10,Calm,Calm,,,,Scattered Clouds,,2012-10-28 12:00:00
8:00 AM,73.4,68.0,83,29.77,6.2,Calm,Calm,-,N/A,,Partly Cloudy,0,2012-10-28 12:00:00
9:00 AM,82.4,73.4,74,29.77,6.2,Calm,Calm,-,N/A,,Partly Cloudy,0,2012-10-28 13:00:00
10:00 AM,82.4,73.4,74,29.77,6.2,Calm,Calm,-,N/A,,Partly Cloudy,0,2012-10-28 14:00:00
11:00 AM,88,73,52,29.80,10,ENE,6.7,,,,Scattered Clouds,60,2012-10-28 15:00:00
11:00 AM,87.8,73.4,62,29.80,6.2,ENE,6.9,-,N/A,,Partly Cloudy,70,2012-10-28 15:00:00
12:00 PM,89.6,73.4,59,29.80,6.2,ENE,6.9,-,N/A,,Partly Cloudy,60,2012-10-28 16:00:00
1:00 PM,87.8,75.2,66,29.77,6.2,ENE,6.9,-,N/A,,Partly Cloudy,60,2012-10-28 17:00:00
2:00 PM,87,75,59,29.75,10,North,15.7,,,,Partly Cloudy,350,2012-10-28 18:00:00
2:00 PM,87.8,75.2,66,29.74,6.2,North,15.0,-,N/A,,Scattered Clouds,350,2012-10-28 18:00:00
3:00 PM,84.2,75.2,74,29.74,6.2,SE,11.5,-,N/A,,Scattered Clouds,130,2012-10-28 19:00:00
4:00 PM,84.2,75.2,74,29.74,6.2,NW,17.3,-,N/A,,Mostly Cloudy,310,2012-10-28 20:00:00
5:00 PM,84,74,66,29.76,10,NW,13.4,,,,Partly Cloudy,310,2012-10-28 21:00:00
5:00 PM,84.2,75.2,74,29.74,6.2,NW,13.8,-,N/A,,Scattered Clouds,310,2012-10-28 21:00:00
6:00 PM,82.4,75.2,79,29.77,6.2,NNW,13.8,-,N/A,,Scattered Clouds,330,2012-10-28 22:00:00
7:00 PM,82.4,71.6,70,29.77,6.2,NW,11.5,-,N/A,,Scattered Clouds,310,2012-10-28 23:00:00
8:00 PM,82,71,61,29.80,10,NW,11.2,,,,Partly Cloudy,310,2012-10-29 00:00:00
8:00 PM,82.4,71.6,70,29.80,6.2,NW,11.5,-,N/A,,Mostly Cloudy,310,2012-10-29 00:00:00
11:00 PM,77,71,78,29.85,10,SSE,11.2,,,,Scattered Clouds,150,2012-10-29 03:00:00
11:00 PM,77.0,71.6,83,29.83,6.2,SSE,11.5,-,N/A,,Partly Cloudy,150,2012-10-29 03:00:00